W6NJB Weather Reports


time (UTC)temp
F
wind
direction
speed
knots
gust
knots
rain 1hr
in
rain 24hr
in
rain mn
in
humidity
%
barometer
mb
20260906150515 94 250 0.9 3.5 0.00 0.00 0.00 49 1014.4
20260906150027 94 283 0.9 3.5 0.00 0.00 0.00 49 1014.3
20260906145516 93 286 0.9 3.5 0.00 0.00 0.00 50 1014.4
20260906145016 93 291 0.9 3.5 0.00 0.00 0.00 50 1014.4
20260906144527 93 298 0.9 3.5 0.00 0.00 0.00 50 1014.4
20260906144006 93 108 0.9 2.6 0.00 0.00 0.00 51 1014.4
20260906143509 92 112 0.9 2.6 0.00 0.00 0.00 52 1014.5
20260906143012 92 117 0.9 2.6 0.00 0.00 0.00 53 1014.6
20260906142507 91 138 0.0 2.6 0.00 0.00 0.00 54 1014.7
20260906142009 91 342 0.0 2.6 0.00 0.00 0.00 54 1014.8
20260906141518 90 34 0.0 2.6 0.00 0.00 0.00 55 1014.8
20260906141016 90 151 0.0 2.6 0.00 0.00 0.00 56 1014.7
20260906140514 89 40 0.0 1.7 0.00 0.00 0.00 57 1014.7
20260906140033 88 60 0.9 2.6 0.00 0.00 0.00 60 1014.8
20260906135516 88 360 0.9 2.6 0.00 0.00 0.00 60 1014.7
20260906135018 87 77 0.9 2.6 0.00 0.00 0.00 61 1014.7
20260906134530 86 76 0.0 1.7 0.00 0.00 0.00 63 1014.7
20260906134017 85 288 0.0 0.9 0.00 0.00 0.00 66 1014.6
20260906133517 84 288 0.0 0.9 0.00 0.00 0.00 69 1014.6
20260906133033 83 288 0.0 0.0 0.00 0.00 0.00 70 1014.6
20260906132508 82 288 0.0 0.0 0.00 0.00 0.00 72 1014.6
20260906132007 81 288 0.0 0.0 0.00 0.00 0.00 76 1014.5
20260906131514 80 288 0.0 0.0 0.00 0.00 0.00 78 1014.5
20260906131011 79 288 0.0 0.0 0.00 0.00 0.00 80 1014.5
20260906130512 78 288 0.0 0.0 0.00 0.00 0.00 81 1014.4
20260906130033 77 290 0.0 0.9 0.00 0.00 0.00 82 1014.4
20260906125514 76 290 0.0 0.9 0.00 0.00 0.00 83 1014.5
20260906125019 75 67 0.0 0.9 0.00 0.00 0.00 84 1014.4
20260906124528 74 67 0.0 0.0 0.00 0.00 0.00 85 1014.4
20260906124017 74 67 0.0 0.0 0.00 0.00 0.00 85 1014.3
20260906123517 74 67 0.0 0.9 0.00 0.00 0.00 85 1014.3
20260906123040 74 67 0.0 0.9 0.00 0.00 0.00 86 1014.2
20260906122522 73 67 0.0 0.9 0.00 0.00 0.00 86 1014.2
20260906122019 73 67 0.0 1.7 0.00 0.00 0.00 86 1014.0
20260906121530 73 67 0.0 1.7 0.00 0.00 0.00 86 1013.9
20260906121010 73 67 0.0 3.5 0.00 0.00 0.00 87 1013.9
20260906120512 72 49 0.9 3.5 0.00 0.00 0.00 87 1013.8
20260906120025 72 350 0.0 1.7 0.00 0.00 0.00 86 1013.6
20260906115510 72 301 0.0 0.0 0.00 0.00 0.00 86 1013.5
20260906115014 72 301 0.0 0.0 0.00 0.00 0.00 87 1013.4
20260906114507 72 301 0.0 0.0 0.00 0.00 0.00 87 1013.4
20260906114002 73 301 0.0 0.0 0.00 0.00 0.00 86 1013.3
20260906113502 73 301 0.0 0.9 0.00 0.00 0.00 86 1013.2
20260906113008 73 301 0.0 0.9 0.00 0.00 0.00 86 1013.2
20260906112506 73 301 0.0 0.9 0.00 0.00 0.00 86 1013.1
20260906112008 73 301 0.0 0.0 0.00 0.00 0.00 86 1013.1
20260906111511 73 301 0.0 0.0 0.00 0.00 0.00 86 1013.0
20260906111010 73 301 0.0 0.0 0.00 0.00 0.00 86 1013.1
20260906110509 73 301 0.0 0.0 0.00 0.00 0.00 86 1013.0
20260906110015 73 301 0.0 0.0 0.00 0.00 0.00 86 1013.0
20260906105513 73 301 0.0 0.0 0.00 0.00 0.00 86 1013.0
20260906105017 73 301 0.0 0.0 0.00 0.00 0.00 86 1013.0
20260906104503 73 301 0.0 0.0 0.00 0.00 0.00 86 1013.0
20260906104004 73 301 0.0 0.0 0.00 0.00 0.00 86 1013.0
20260906103503 73 301 0.0 0.0 0.00 0.00 0.00 86 1013.0
20260906103011 73 301 0.0 0.0 0.00 0.00 0.00 86 1013.0
20260906102506 73 301 0.0 0.0 0.00 0.00 0.00 86 1013.1
20260906102009 73 301 0.0 0.0 0.00 0.00 0.00 86 1013.0
20260906101509 73 301 0.0 0.0 0.00 0.00 0.00 85 1013.0
20260906101009 73 301 0.0 0.0 0.00 0.00 0.00 85 1013.0
20260906100508 73 301 0.0 0.0 0.00 0.00 0.00 86 1013.0
20260906100025 74 301 0.0 0.0 0.00 0.00 0.00 86 1013.0
20260906095508 74 301 0.0 0.0 0.00 0.00 0.00 86 1013.0
20260906095016 74 301 0.0 0.0 0.00 0.00 0.00 85 1012.9
20260906094531 74 301 0.0 0.0 0.00 0.00 0.00 85 1012.9
20260906094015 74 301 0.0 0.0 0.00 0.00 0.00 84 1012.9
20260906093516 74 301 0.0 0.0 0.00 0.00 0.00 84 1012.9
20260906093013 74 301 0.0 0.0 0.00 0.00 0.00 84 1012.8
20260906092503 74 301 0.0 0.0 0.00 0.00 0.00 84 1012.8
20260906092007 74 301 0.0 0.0 0.00 0.00 0.00 84 1012.9
20260906091517 74 301 0.0 0.9 0.00 0.00 0.00 84 1012.8
20260906091008 74 301 0.0 0.9 0.00 0.00 0.00 84 1012.8
20260906090507 74 301 0.0 0.0 0.00 0.00 0.00 84 1012.7
20260906090016 74 301 0.0 0.0 0.00 0.00 0.00 84 1012.7
20260906085510 74 301 0.0 0.0 0.00 0.00 0.00 84 1012.7
20260906085009 74 301 0.0 0.0 0.00 0.00 0.00 84 1012.7
20260906084519 74 301 0.0 0.0 0.00 0.00 0.00 84 1012.7
20260906084010 74 301 0.0 0.0 0.00 0.00 0.00 84 1012.7
20260906083514 74 301 0.0 0.0 0.00 0.00 0.00 84 1012.7
20260906083028 74 301 0.0 0.0 0.00 0.00 0.00 83 1012.7
20260906082514 74 301 0.0 0.0 0.00 0.00 0.00 84 1012.7
20260906082014 74 301 0.0 0.0 0.00 0.00 0.00 84 1012.7
20260906081505 74 301 0.0 0.0 0.00 0.00 0.00 84 1012.7
20260906081003 74 301 0.0 0.0 0.00 0.00 0.00 83 1012.7
20260906080503 75 301 0.0 0.0 0.00 0.00 0.00 83 1012.7
20260906080010 75 302 0.0 0.0 0.00 0.00 0.00 83 1012.6
20260906075507 75 302 0.0 0.0 0.00 0.00 0.00 83 1012.7
20260906075009 75 302 0.0 0.0 0.00 0.00 0.00 83 1012.7
20260906074517 75 302 0.0 0.0 0.00 0.00 0.00 83 1012.7
20260906074012 75 302 0.0 0.0 0.00 0.00 0.00 83 1012.8
20260906073512 75 302 0.0 0.0 0.00 0.00 0.00 82 1012.8
20260906073025 75 302 0.0 0.0 0.00 0.00 0.00 82 1012.9
20260906072515 75 302 0.0 0.0 0.00 0.00 0.00 83 1013.0
20260906072016 75 302 0.0 0.0 0.00 0.00 0.00 82 1013.1
20260906071528 75 302 0.0 0.0 0.00 0.00 0.00 81 1013.1
20260906071014 75 302 0.0 0.0 0.00 0.00 0.00 82 1013.1
20260906070503 75 302 0.0 0.0 0.00 0.00 0.00 81 1013.0
20260906070017 75 302 0.0 0.0 0.00 0.00 0.00 81 1013.0
20260906065510 75 302 0.0 0.0 0.00 0.00 0.00 81 1013.1
20260906065010 75 302 0.0 0.0 0.00 0.00 0.00 81 1013.0
20260906064514 75 302 0.0 0.0 0.00 0.00 0.00 81 1013.0
20260906064014 75 302 0.0 0.0 0.00 0.00 0.00 81 1013.0
20260906063511 76 302 0.0 0.0 0.00 0.00 0.00 81 1013.1
20260906063024 76 302 0.0 0.0 0.00 0.00 0.00 81 1013.2
20260906062514 76 302 0.0 0.0 0.00 0.00 0.00 81 1013.1
20260906062014 76 302 0.0 0.0 0.00 0.00 0.00 80 1013.1
20260906061526 76 302 0.0 0.0 0.00 0.00 0.00 80 1013.2
20260906061015 76 302 0.0 0.0 0.00 0.00 0.00 80 1013.1
20260906060517 76 302 0.0 0.0 0.00 0.00 0.00 80 1013.0
20260906060033 76 302 0.0 0.0 0.00 0.00 0.00 80 1013.1
20260906055517 76 302 0.0 0.0 0.00 0.00 0.00 79 1013.1
20260906055004 76 302 0.0 0.9 0.00 0.00 0.00 80 1013.1
20260906054513 76 302 0.0 0.9 0.00 0.00 0.00 79 1013.1
20260906054008 76 302 0.0 0.0 0.00 0.00 0.00 79 1013.2
20260906053507 77 302 0.0 0.0 0.00 0.00 0.00 79 1013.1
20260906053019 77 302 0.0 0.0 0.00 0.00 0.00 79 1013.1
20260906052512 77 302 0.0 0.0 0.00 0.00 0.00 78 1013.0
20260906052012 77 301 0.0 0.0 0.00 0.00 0.00 78 1013.0
20260906051531 77 302 0.0 0.0 0.00 0.00 0.00 78 1012.8
20260906051017 77 302 0.0 0.0 0.00 0.00 0.00 78 1012.7
20260906050518 77 302 0.0 0.0 0.00 0.00 0.00 78 1012.6
20260906050038 77 302 0.0 0.0 0.00 0.00 0.00 77 1012.6
20260906045516 77 302 0.0 0.9 0.00 0.00 0.00 77 1012.6
20260906045016 78 302 0.0 0.9 0.00 0.00 0.00 77 1012.6
20260906044534 78 302 0.0 0.9 0.00 0.00 0.00 77 1012.5
20260906044007 78 302 0.0 0.0 0.00 0.00 0.00 76 1012.5
20260906043512 78 302 0.0 0.0 0.00 0.00 0.00 76 1012.6
20260906043012 78 302 0.0 0.0 0.00 0.00 0.00 76 1012.5
20260906042510 78 302 0.0 0.0 0.00 0.00 0.00 76 1012.5
20260906042004 78 302 0.0 0.0 0.00 0.00 0.00 76 1012.6
20260906041504 78 302 0.0 0.0 0.00 0.00 0.00 76 1012.7
20260906041005 78 302 0.0 0.0 0.00 0.00 0.00 75 1012.8
20260906040507 79 302 0.0 0.0 0.00 0.00 0.00 75 1012.8
20260906040004 79 302 0.0 0.0 0.00 0.00 0.00 75 1012.7
20260906035504 79 302 0.0 0.0 0.00 0.00 0.00 74 1012.7
20260906035007 79 302 0.0 0.0 0.00 0.00 0.00 74 1012.7
20260906034505 79 302 0.0 0.0 0.00 0.00 0.00 73 1012.7
20260906034004 79 302 0.0 0.0 0.00 0.00 0.00 73 1012.8
20260906033504 79 302 0.0 0.0 0.00 0.00 0.00 73 1012.8
20260906033006 80 302 0.0 0.0 0.00 0.00 0.00 74 1012.8
20260906032506 80 302 0.0 0.0 0.00 0.00 0.00 73 1012.9
20260906032006 80 302 0.0 0.0 0.00 0.00 0.00 72 1013.0
20260906031516 80 302 0.0 0.0 0.00 0.00 0.00 72 1013.0
20260906031005 80 302 0.0 0.9 0.00 0.00 0.00 72 1013.1
20260906030503 80 302 0.0 0.9 0.00 0.00 0.00 72 1013.1
20260906030010 81 302 0.0 0.0 0.00 0.00 0.00 70 1013.1
20260906025508 81 302 0.0 0.0 0.00 0.00 0.00 70 1013.1
20260906025006 81 302 0.0 0.0 0.00 0.00 0.00 70 1013.0
20260906024517 81 302 0.0 0.0 0.00 0.00 0.00 69 1012.9
20260906024004 82 302 0.0 0.0 0.00 0.00 0.00 68 1012.9
20260906023506 82 302 0.0 0.0 0.00 0.00 0.00 67 1012.8
20260906023007 82 302 0.0 0.0 0.00 0.00 0.00 66 1012.7
20260906022506 83 301 0.0 0.0 0.00 0.00 0.00 67 1012.7
20260906022006 83 302 0.0 0.0 0.00 0.00 0.00 67 1012.6
20260906021509 83 302 0.0 0.0 0.00 0.00 0.00 66 1012.4
20260906021008 84 302 0.0 0.0 0.00 0.00 0.00 65 1012.2
20260906020506 84 302 0.0 0.0 0.00 0.00 0.00 64 1012.2
20260906020005 84 302 0.0 0.0 0.00 0.00 0.00 64 1012.0
20260906015503 85 302 0.0 0.9 0.00 0.00 0.00 64 1011.9
20260906015006 85 302 0.0 0.9 0.00 0.00 0.00 63 1011.9
20260906014515 86 302 0.0 0.9 0.00 0.00 0.00 62 1011.9
20260906014004 86 302 0.0 0.0 0.00 0.00 0.00 59 1011.8
20260906013506 86 302 0.0 0.0 0.00 0.00 0.00 59 1011.7
20260906013004 87 302 0.0 0.0 0.00 0.00 0.00 58 1011.6
20260906012509 87 302 0.0 0.0 0.00 0.00 0.00 56 1011.6
20260906012006 88 302 0.0 0.9 0.00 0.00 0.00 56 1011.5
20260906011507 88 302 0.0 0.9 0.00 0.00 0.00 55 1011.5
20260906011008 89 302 0.0 1.7 0.00 0.00 0.00 54 1011.5
20260906010507 89 302 0.0 1.7 0.00 0.00 0.00 54 1011.4
20260906010022 89 133 0.0 0.9 0.00 0.00 0.00 53 1011.3
20260906005507 89 133 0.0 2.6 0.00 0.00 0.00 52 1011.4
20260906005008 90 189 0.0 2.6 0.00 0.00 0.00 51 1011.4
20260906004508 91 112 0.0 1.7 0.00 0.00 0.00 50 1011.3
20260906004007 92 112 0.0 0.0 0.00 0.00 0.00 50 1011.3
20260906003511 93 112 0.0 0.0 0.00 0.00 0.00 48 1011.2
20260906003010 93 112 0.0 0.0 0.00 0.00 0.00 48 1011.3
20260906002505 94 112 0.0 0.0 0.00 0.00 0.00 47 1011.3
20260906002008 94 112 0.0 0.0 0.00 0.00 0.00 46 1011.3
20260906001507 95 112 0.0 1.7 0.00 0.00 0.00 45 1011.4
20260906001006 95 112 0.0 3.5 0.00 0.00 0.00 44 1011.4
20260906000506 95 123 0.0 3.5 0.00 0.00 0.00 45 1011.5
20260906000018 96 124 0.0 0.9 0.00 0.00 0.00 45 1011.5
20260905235509 96 124 0.0 1.7 0.00 0.00 0.00 44 1011.5
20260905235012 96 108 0.0 3.5 0.00 0.00 0.00 44 1011.5
20260905234511 97 159 0.0 4.3 0.00 0.00 0.00 44 1011.5
20260905234009 97 178 1.7 4.3 0.00 0.00 0.00 43 1011.4
20260905233509 97 185 0.0 1.7 0.00 0.00 0.00 43 1011.4
20260905233012 97 184 0.9 3.5 0.00 0.00 0.00 43 1011.5
20260905232508 97 165 0.0 3.5 0.00 0.00 0.00 44 1011.4
20260905232010 97 188 0.9 2.6 0.00 0.00 0.00 44 1011.5
20260905231512 97 159 0.9 4.3 0.00 0.00 0.00 44 1011.5
20260905231007 97 71 1.7 4.3 0.00 0.00 0.00 44 1011.5
20260905230507 97 101 0.9 4.3 0.00 0.00 0.00 44 1011.4
20260905230028 97 157 0.0 1.7 0.00 0.00 0.00 45 1011.4
20260905225509 96 254 0.0 1.7 0.00 0.00 0.00 45 1011.4
20260905225006 96 185 0.0 2.6 0.00 0.00 0.00 45 1011.4
20260905224518 96 257 0.0 3.5 0.00 0.00 0.00 44 1011.4
20260905224008 96 142 0.9 3.5 0.00 0.00 0.00 44 1011.5
20260905223510 97 177 0.9 4.3 0.00 0.00 0.00 44 1011.5
20260905223027 97 122 0.0 4.3 0.00 0.00 0.00 44 1011.5
20260905222510 97 126 1.7 6.1 0.00 0.00 0.00 43 1011.5
20260905222009 98 40 1.7 6.1 0.00 0.00 0.00 43 1011.6
20260905221516 98 159 1.7 6.1 0.00 0.00 0.00 43 1011.5
20260905221006 97 123 0.9 5.2 0.00 0.00 0.00 45 1011.5
20260905220512 97 211 0.0 6.1 0.00 0.00 0.00 46 1011.5
20260905220022 97 237 1.7 7.8 0.00 0.00 0.00 45 1011.5
20260905215508 96 130 1.7 7.8 0.00 0.00 0.00 46 1011.5
20260905215009 96 222 2.6 6.1 0.00 0.00 0.00 46 1011.5
20260905214516 96 160 0.9 6.1 0.00 0.00 0.00 45 1011.6
20260905214010 98 134 0.9 7.0 0.00 0.00 0.00 44 1011.6
20260905213512 99 155 2.6 7.8 0.00 0.00 0.00 40 1011.5
20260905213016 99 122 0.9 8.7 0.00 0.00 0.00 38 1011.3
20260905212510 100 95 1.7 8.7 0.00 0.00 0.00 37 1011.2
20260905212012 100 132 0.9 7.0 0.00 0.00 0.00 36 1011.3
20260905211539 101 105 0.9 9.6 0.00 0.00 0.00 36 1011.3
20260905211010 101 82 1.7 9.6 0.00 0.00 0.00 36 1011.3
20260905210512 101 162 3.5 7.8 0.00 0.00 0.00 34 1011.4
20260905210019 101 352 1.7 7.0 0.00 0.00 0.00 34 1011.5
20260905205509 101 234 0.9 2.6 0.00 0.00 0.00 34 1011.5
20260905205010 100 170 0.0 2.6 0.00 0.00 0.00 35 1011.6
20260905204519 100 130 0.9 2.6 0.00 0.00 0.00 36 1011.6
20260905204013 101 156 0.0 1.7 0.00 0.00 0.00 35 1011.7
20260905203511 101 121 0.0 2.6 0.00 0.00 0.00 34 1011.8
20260905203018 102 121 0.9 6.1 0.00 0.00 0.00 33 1011.8
20260905202513 103 101 1.7 6.1 0.00 0.00 0.00 33 1011.9
20260905202009 103 11 0.0 6.1 0.00 0.00 0.00 32 1012.0
20260905201525 104 228 0.9 6.1 0.00 0.00 0.00 32 1012.0
20260905201011 104 34 0.9 4.3 0.00 0.00 0.00 32 1012.0
20260905200513 103 330 1.7 5.2 0.00 0.00 0.00 33 1012.1
20260905200021 103 5 1.7 5.2 0.00 0.00 0.00 33 1012.2
20260905195512 102 309 0.9 8.7 0.00 0.00 0.00 32 1012.2
20260905195012 103 248 6.1 8.7 0.00 0.00 0.00 32 1012.3
20260905194518 102 283 3.5 7.0 0.00 0.00 0.00 33 1012.4
20260905194014 102 242 1.7 7.0 0.00 0.00 0.00 33 1012.4
20260905193514 102 232 0.9 8.7 0.00 0.00 0.00 34 1012.5
20260905193018 101 15 2.6 8.7 0.00 0.00 0.00 34 1012.6
20260905192513 101 226 1.7 8.7 0.00 0.00 0.00 35 1012.6
20260905192013 101 193 2.6 8.7 0.00 0.00 0.00 34 1012.7
20260905191522 101 360 1.7 7.0 0.00 0.00 0.00 35 1012.8
20260905191012 100 234 3.5 7.8 0.00 0.00 0.00 36 1013.0
20260905190502 100 273 3.5 7.8 0.00 0.00 0.00 36 1013.0
20260905190004 100 263 3.5 7.8 0.00 0.00 0.00 36 1013.1
20260905185502 101 340 0.9 5.2 0.00 0.00 0.00 36 1013.1
20260905185006 101 107 0.9 5.2 0.00 0.00 0.00 36 1013.2
20260905184509 102 254 1.7 4.3 0.00 0.00 0.00 35 1013.3
20260905184007 102 349 0.9 4.3 0.00 0.00 0.00 35 1013.3
20260905183510 102 136 0.0 4.3 0.00 0.00 0.00 35 1013.4
20260905183015 102 36 1.7 4.3 0.00 0.00 0.00 36 1013.5
20260905182509 101 25 0.9 6.1 0.00 0.00 0.00 36 1013.5
20260905182012 101 114 0.9 7.0 0.00 0.00 0.00 36 1013.7
20260905181520 101 295 2.6 9.6 0.00 0.00 0.00 35 1013.7
20260905181010 101 254 1.7 9.6 0.00 0.00 0.00 36 1013.6
20260905180517 101 202 2.6 7.0 0.00 0.00 0.00 36 1013.7
20260905180025 100 206 0.9 7.8 0.00 0.00 0.00 37 1013.7
20260905175518 100 352 2.6 7.8 0.00 0.00 0.00 37 1013.8
20260905175003 100 202 1.7 7.8 0.00 0.00 0.00 38 1013.9
20260905174504 99 119 2.6 7.8 0.00 0.00 0.00 40 1013.9
20260905174007 99 238 2.6 7.8 0.00 0.00 0.00 37 1014.0
20260905173507 100 352 0.9 3.5 0.00 0.00 0.00 37 1014.1
20260905173027 100 349 0.9 3.5 0.00 0.00 0.00 37 1014.2
20260905172508 99 5 0.9 3.5 0.00 0.00 0.00 39 1014.2
20260905172011 98 10 0.0 7.0 0.00 0.00 0.00 40 1014.3
20260905171518 98 250 2.6 7.0 0.00 0.00 0.00 40 1014.4
20260905171012 98 272 3.5 7.0 0.00 0.00 0.00 39 1014.4
20260905170510 99 227 1.7 7.0 0.00 0.00 0.00 40 1014.5
20260905170023 98 34 2.6 7.0 0.00 0.00 0.00 40 1014.5
20260905165514 99 271 2.6 7.0 0.00 0.00 0.00 40 1014.6
20260905165017 99 61 0.9 6.1 0.00 0.00 0.00 41 1014.7
20260905164526 99 100 0.9 6.1 0.00 0.00 0.00 41 1014.6
20260905164019 99 240 2.6 7.8 0.00 0.00 0.00 41 1014.7
20260905163506 99 352 0.9 7.8 0.00 0.00 0.00 41 1014.7
20260905163012 98 142 0.9 6.1 0.00 0.00 0.00 43 1014.7
20260905162510 98 51 0.9 6.1 0.00 0.00 0.00 44 1014.8
20260905162008 97 268 2.6 6.1 0.00 0.00 0.00 43 1014.9
20260905161515 97 240 1.7 5.2 0.00 0.00 0.00 44 1015.0
20260905161011 97 25 1.7 7.8 0.00 0.00 0.00 43 1015.1
20260905160512 97 258 4.3 7.8 0.00 0.00 0.00 44 1015.2
20260905160018 97 242 2.6 6.1 0.00 0.00 0.00 45 1015.1
20260905155513 96 345 2.6 6.1 0.00 0.00 0.00 46 1015.1
20260905155014 95 109 0.9 7.8 0.00 0.00 0.00 46 1015.1
20260905154527 95 309 1.7 7.8 0.00 0.00 0.00 46 1015.2
20260905154017 95 223 2.6 7.0 0.00 0.00 0.00 46 1015.3
20260905153516 95 278 1.7 7.8 0.00 0.00 0.00 45 1015.2
20260905153027 95 67 0.9 7.8 0.00 0.00 0.00 47 1015.2
20260905152518 95 286 1.7 4.3 0.00 0.00 0.00 48 1015.2
20260905152008 94 5 0.9 7.0 0.00 0.00 0.00 49 1015.2
20260905151510 94 317 2.6 7.0 0.00 0.00 0.00 49 1015.3
20260905151005 93 22 0.0 3.5 0.00 0.00 0.00 51 1015.3